Location: *
(47.8167°N, 7.3333°E)
Time: 11:13:23
(UTC+00:00)

Daily predictions for brighter satellites

Satellite Brightness Start Highest point End
(mag) Time Altitude Azimuth Time Altitude Azimuth Time Altitude Azimuth
Meteor 1-27 Rocket 4.3 16:01:39 10° SSE 16:06:59 41° E 16:12:26 10° NNE
H-2A R/B 3.6 16:07:04 10° SE 16:10:10 26° ENE 16:13:17 10° N
Helios 1A Rocket 3.0 16:08:38 10° SSE 16:12:45 90° E 16:16:51 10° NNW
Meteor 1-28 Rocket 4.3 16:11:25 10° N 16:15:02 45° WNW 16:18:39 10° SW
FENGYUN 3A 4.3 16:11:55 10° S 16:17:18 65° WSW 16:22:42 10° NNW
Cosmos 1689 Rocket 2.2 16:14:16 10° NNE 16:17:18 84° WNW 16:20:19 10° SSW
Genesis I 3.7 16:17:34 10° NNW 16:21:17 39° NE 16:24:55 10° ESE
COSMOS 2428 3.0 16:15:45 10° SW 16:21:24 70° WNW 16:27:07 10° NNE
Cosmos 2279 Rocket 4.3 16:15:52 10° NNW 16:22:08 75° W 16:28:21 10° S
Cosmos 1908 Rocket 4.2 16:20:27 10° N 16:24:29 34° ENE 16:28:27 10° SE
Cosmos 2251 Rocket 3.6 16:19:26 10° S 16:24:42 69° ESE 16:29:57 10° NNE
Okean-O 3.4 16:23:22 10° SE 16:27:12 29° ENE 16:31:02 10° N
Meteor 1-5 Rocket 4.2 16:21:40 10° NNW 16:27:13 87° W 16:32:35 10° S
CZ-4B R/B 3.0 16:24:07 10° N 16:27:23 37° WNW 16:30:35 10° SW
Cosmos 1666 3.4 16:24:35 10° N 16:27:58 31° ENE 16:31:20 10° SE
RESURS DK-1 3.0 16:25:04 10° SW 16:29:06 53° WNW 16:33:11 10° NNE
Envisat 3.7 16:25:34 10° SE 16:30:02 32° ENE 16:34:32 10° N
COSMO-SKYMED 1 4.2 16:28:56 10° NE 16:31:29 15° E 16:34:01 10° SE
USA 267 3.3 16:25:42 10° ESE 16:32:15 83° NNE 16:38:49 10° NW
Okean 1-7 4.3 16:29:38 10° SE 16:33:00 22° E 16:36:23 10° NE
CZ-4B R/B 4.0 16:29:04 10° S 16:34:19 57° W 16:39:42 10° NNW
YAOGAN 1 4.0 16:35:46 10° E 16:38:27 16° ENE 16:41:09 10° NNE
Cosmos 1992 Rocket 4.2 16:33:47 10° NNW 16:39:02 80° WSW 16:44:15 10° SSE
Feng Yun 1-1 Rocket 4.1 16:34:23 10° SSE 16:39:44 70° ENE 16:45:08 10° NNW
NOSS 3-4 (A) 4.4 16:34:21 10° WSW 16:40:04 40° NW 16:46:13 10° NE
NOSS 3-4 (C) 4.4 16:34:27 10° WSW 16:40:10 40° NW 16:46:19 10° NE
Cosmos 1536 2.7 16:38:40 10° N 16:42:42 72° E 16:46:40 10° SSE
Nadezhda 4 Rocket 4.0 16:36:46 10° S 16:43:03 73° E 16:49:21 10° NNE
Cosmos 2278 Rocket 2.9 16:37:33 10° NNW 16:43:07 61° WSW 16:48:41 10° S
Cosmos 2360 Rocket 4.1 16:41:13 10° W 16:45:32 22° NW 16:49:52 10° N
Cosmos 1733 Rocket 3.7 16:41:55 10° NNW 16:46:15 61° W 16:50:35 10° S
Lacrosse 5 rocket 2.0 16:48:25 10° WSW 16:52:34 46° NNW 16:55:35 16° NE
AQUARIUS 4.1 16:49:18 10° SSE 16:53:48 82° ENE 16:58:19 10° NNW
Cosmos 2369 Rocket 3.3 16:49:51 10° N 16:54:20 24° NE 16:57:15 16° E
SMAP 3.1 16:49:50 10° SSE 16:54:29 90° WSW 16:59:11 10° NNW
YAOGAN 6 3.4 16:53:05 10° SE 16:56:11 28° ENE 16:59:20 10° N
FengYun 1-2 T 4.5 16:53:42 10° SE 16:58:51 44° ENE 17:04:03 10° N
SL-4 R/B 2.3 16:55:19 10° W 16:58:58 47° N 17:01:17 22° ENE
Cosmos 1743 3.4 16:56:06 10° N 16:59:36 32° ENE 17:03:06 10° SE
Cosmos 921 Rocket 3.1 16:55:26 10° N 16:59:38 51° ENE 17:03:52 10° SE
IRS-1C Rocket 4.3 16:55:04 10° S 17:00:19 75° WSW 17:05:37 10° NNW
SL-16 R/B 2.7 16:55:05 10° S 17:00:22 41° ESE 17:04:31 16° NE
Okean 1 4.1 17:00:33 10° SSE 17:04:00 29° E 17:05:30 22° NE
Aureole 1 Rocket 2.2 17:01:19 10° S 17:04:16 61° ESE 17:06:12 22° NE
Cosmos 2026 Rocket 4.1 16:58:57 10° SSE 17:04:44 49° E 17:10:33 10° NNE
FALCON 9 DEB 3.2 17:01:22 10° SW 17:04:51 71° SSE 17:06:35 27° ENE
Cosmos 1867 3.7 17:00:50 10° NNW 17:06:11 50° NE 17:11:28 10° ESE
NOSS 0 Rocket 4.3 17:01:54 10° SW 17:08:04 65° WNW 17:14:19 10° NNE
CORIOLIS 4.3 17:03:01 10° SSE 17:08:28 83° WSW 17:13:58 10° NNW
Cosmos 2237 Rocket 2.4 17:03:39 10° SW 17:09:20 72° WNW 17:15:03 10° NNE
Cosmos 1812 4.1 17:08:52 10° SW 17:12:30 39° WNW 17:16:11 10° N
CZ-4 R/B 1.8 17:09:09 10° SE 17:12:43 36° ENE 17:16:16 10° N
Cosmos 2333 Rocket 3.7 17:08:05 10° WSW 17:13:11 32° NW 17:18:21 10° NNE
ATLAS 5 CENTAUR R/B 0.3 17:11:19 10° SW 17:13:31 89° SE 17:13:53 55° NE
SeaSat 1 4.3 17:16:07 14° NNE 17:16:07 14° NNE 17:18:01 10° N
ATLAS 2AS CENTAUR R/B 4.2 17:11:32 10° W 17:18:36 32° NNW 17:24:34 14° NE
Cosmos 2219 Rocket 3.8 17:14:31 10° WSW 17:19:23 29° NW 17:24:18 10° NNE
Cosmos 1782 Rocket 3.4 17:15:11 10° N 17:19:32 69° ENE 17:23:51 10° SSE
SKYMED 2 3.9 17:17:34 22° NE 17:19:59 43° E 17:24:08 10° S
Cosmos 292 Rocket 4.4 17:15:25 10° NNW 17:20:13 58° WSW 17:24:58 10° S
Cosmos 1943 Rocket 2.6 17:19:37 10° NNW 17:24:56 40° NE 17:27:53 23° ESE
STARLINK-67 3.9 17:25:35 10° NW 17:27:37 28° NNW 17:27:37 28° NNW
Okean 2 Rocket 3.5 17:24:01 10° N 17:28:15 40° ENE 17:32:29 10° SE
Sich 1 Rocket 3.4 17:25:52 10° N 17:30:16 68° E 17:34:38 10° SSE
Cosmos 2221 Rocket 4.0 17:26:49 10° SSE 17:30:55 37° E 17:31:09 37° E
Cosmos 1703 Rocket 3.6 17:27:09 10° S 17:31:37 82° W 17:36:09 10° N
STARLINK-52 3.1 17:29:44 10° WSW 17:33:16 89° NNW 17:33:53 58° ENE
Cosmos 1190 Rocket 4.0 17:28:15 10° S 17:33:21 60° ESE 17:36:02 28° NE
Cosmos 1975 2.9 17:31:17 10° N 17:35:13 51° ENE 17:39:07 10° SSE
Cosmos 676 Rocket 4.4 17:31:01 10° S 17:35:47 39° ESE 17:36:37 36° E
CSL-04 Rocket 3.6 17:32:32 10° SSE 17:37:41 58° ENE 17:42:54 10° N
Cosmos 1627 Rocket 4.4 17:31:51 10° S 17:37:58 90° ESE 17:44:10 10° N
USA 215 3.5 17:36:17 25° NE 17:40:16 61° NNW 17:46:41 10° WSW
STARLINK-60 3.3 17:38:00 10° W 17:41:20 55° NNW 17:41:33 54° N
STARLINK-29 3.1 17:37:53 10° WSW 17:41:26 75° NNW 17:41:45 67° NNE
Lacrosse 5 3.6 17:38:49 10° SSE 17:41:14 17° SE 17:41:14 17° SE
Cosmos 1954 Rocket 4.3 17:38:29 10° S 17:43:20 42° ESE 17:43:49 41° E
Cosmos 1441 Rocket 4.2 17:40:32 10° NNW 17:44:12 47° W 17:47:48 10° S
STARLINK-43 4.1 17:41:21 10° SSW 17:44:33 37° SSE 17:44:33 37° SSE
Cosmos 1655 Rocket 4.1 17:42:28 10° SSE 17:48:32 52° E 17:53:06 18° NNE
Cosmos 614 Rocket 3.9 17:43:59 10° SSW 17:49:05 85° WNW 17:51:50 28° NNE
Cosmos 2297 4.3 17:43:53 10° NW 17:49:29 57° WSW 17:55:00 10° S
NOAA 15 4.4 17:45:57 10° SSE 17:51:12 81° ENE 17:56:29 10° NNW
USA 116 4.3 17:51:39 32° NNE 17:54:02 64° E 17:59:01 10° S
Cosmos 1174 4.2 17:51:28 10° SW 17:56:19 68° NW 17:57:14 50° N
CSL-04 Debris 4.0 17:51:20 10° SSE 17:56:47 83° ENE 18:02:15 10° NNW
Okean-O 4.4 17:59:36 10° SSW 18:03:36 33° W 18:07:38 10° NNW
COSMO-SKYMED 1 3.0 18:06:07 31° N 18:08:04 62° WNW 18:12:21 10° SSW
Envisat 4.4 18:04:17 10° SSW 18:08:59 38° W 18:13:44 10° NNW
BREEZE-M R/B 3.2 18:04:52 10° WNW 18:08:34 53° W 18:08:34 53° W
Okean 1-7 4.4 18:06:15 10° SW 18:10:19 39° WNW 18:13:53 13° N
Cosmos 1140 Rocket 3.4 18:05:48 10° SSW 18:10:55 84° WNW 18:12:14 52° NNE
Meteor 2-13 Rocket 4.3 18:05:01 10° S 18:11:03 74° E 18:14:12 30° NNE
YAOGAN 1 2.9 18:09:47 10° S 18:14:04 64° WSW 18:18:24 10° NNW
Meteor 2-9 Rocket 4.3 18:11:15 10° NNW 18:17:09 78° W 18:22:55 10° S
NOSS 3-1 (C) 3.9 18:11:14 10° NW 18:18:33 67° NE 18:20:52 48° ESE
Cosmos 407 Rocket 4.2 18:14:47 10° SW 18:19:52 52° WNW 18:22:13 30° N
NOAA 11 4.2 18:16:11 10° SSE 18:21:39 81° WSW 18:27:10 10° NNW
S3M 4.0 18:19:09 10° NNW 18:25:23 77° W 18:31:29 10° S
USA 229 DEB 3.7 18:21:08 10° NW 18:28:22 74° NE 18:29:44 60° ESE
USA 229 3.7 18:21:14 10° NW 18:28:27 74° NE 18:29:46 61° ESE
CZ-4C R/B 3.6 18:26:15 10° S 18:28:05 22° S 18:28:05 22° S
Lacrosse 5 rocket 3.5 18:29:10 10° WNW 18:31:14 20° NW 18:31:14 20° NW
NOSS 3-1 (A) 4.0 18:26:32 10° NW 18:33:46 60° NE 18:34:15 59° ENE
Cosmos 2266 Rocket 3.9 18:27:30 10° S 18:33:54 77° E 18:33:59 77° E
SL-4 R/B 3.9 18:35:03 10° WNW 18:36:53 26° WNW 18:36:53 26° WNW
Cosmos 2369 Rocket 2.2 18:33:20 10° NNW 18:38:58 76° WSW 18:39:07 75° SW
SL-16 R/B 3.4 18:39:16 10° WSW 18:44:32 38° NW 18:46:25 30° NNW
CZ-4 R/B 3.8 18:44:56 10° SW 18:47:52 20° W 18:50:48 10° NW
Cosmos 1603 4.4 18:45:30 10° SSW 18:49:20 45° SSW 18:49:20 45° SSW
Cosmos 2237 Rocket 4.4 18:50:44 10° W 18:54:28 17° NW 18:56:54 14° N
Meteor 2-4 Rocket 4.5 19:01:38 10° SSW 19:06:54 52° W 19:06:54 52° W
Cosmos 1943 Rocket 3.4 19:03:30 10° NW 19:08:40 38° WSW 19:09:31 36° SW
ATLAS 2AS CENTAUR R/B 4.4 19:05:47 10° NW 19:12:00 25° N 19:12:00 25° N
Cosmos 2344 4.3 19:09:39 10° NW 19:19:19 85° SW 19:22:30 57° SSE
USA 215 4.2 19:23:38 38° NNW 19:23:38 38° NNW 19:28:41 10° WNW
Lacrosse 5 4.3 19:19:25 10° SW 19:20:27 16° SW 19:20:27 16° SW
